User: anonymous   Login
Location: Seattle
(47.6064°N, 122.3308°W)
Time: 17:18:49
(UTC-08:00)
Language:

S-56A Canister/Altair - Orbit

View from above orbital plane
View from above orbital plane
View from above satellite
View from above satellite

Ground track
Ground track

The orbit data is extracted from the following two-line orbital elements,

1 00082U 61004B   21341.45972798 -.00000093  00000-0 -38715-4 0  9995
2 00082  38.8582   6.2290 1174828 160.0825 204.9953 12.26012318873846
Epoch (UTC): 07 December 2021 11:02:00
Eccentricity: 0.1174828
inclination: 38.8582°
perigee height: 633 km
apogee height: 2500 km
right ascension of ascending node: 6.2290°
argument of perigee: 160.0825°
revolutions per day: 12.26012318
mean anomaly at epoch: 204.9953°
orbit number at epoch: 87384

The dashed part of the orbit path shows where the satellite is in the earth's shadow,  

DLR